Tillbaka till svenska Fidonet
English   Information   Debug  
FILM   0/18
FNEWS_PUBLISH   4751
FN_SYSOP   42036
FN_SYSOP_OLD1   71952
FTP_FIDO   0/2
FTSC_PUBLIC   0/13899
FUNNY   0/4886
GENEALOGY.EUR   0/71
GET_INFO   105
GOLDED   0/408
HAM   2244/16392
HOLYSMOKE   0/6791
HOT_SITES   0/1
HTMLEDIT   0/71
HUB203   466
HUB_100   264
HUB_400   39
HUMOR   0/29
IC   0/2851
INTERNET   0/424
INTERUSER   0/3
IP_CONNECT   719
JAMNNTPD   0/233
JAMTLAND   0/47
KATTY_KORNER   0/41
LAN   0/16
LINUX-USER   0/19
LINUXHELP   0/1155
LINUX   0/22267
LINUX_BBS   0/957
mail   18.68
mail_fore_ok   249
MENSA   0/341
MODERATOR   0/102
MONTE   0/992
MOSCOW_OKLAHOMA   0/1245
MUFFIN   0/783
MUSIC   0/321
N203_STAT   938
N203_SYSCHAT   313
NET203   321
NET204   69
NET_DEV   0/10
NORD.ADMIN   0/101
NORD.CHAT   0/2572
NORD.FIDONET   189
NORD.HARDWARE   0/28
NORD.KULTUR   0/114
NORD.PROG   0/32
NORD.SOFTWARE   0/88
NORD.TEKNIK   0/58
NORD   0/453
OCCULT_CHAT   0/93
OS2BBS   0/787
OS2DOSBBS   0/580
OS2HW   0/42
OS2INET   0/37
OS2LAN   0/134
OS2PROG   0/36
OS2REXX   0/113
OS2USER-L   207
OS2   0/4806
OSDEBATE   0/18996
PASCAL   0/490
PERL   0/457
PHP   0/45
POINTS   0/405
POLITICS   0/29554
POL_INC   0/14731
PSION   103
R20_ADMIN   1132
R20_AMATORRADIO   0/2
R20_BEST_OF_FIDONET   14
R20_CHAT   0/893
R20_DEPP   0/3
R20_DEV   399
R20_ECHO2   1669
R20_ECHOPRES   0/35
R20_ESTAT   0/719
R20_FIDONETPROG...
...RAM.MYPOINT
  0/2
R20_FIDONETPROGRAM   0/22
R20_FIDONET   0/248
R20_FILEFIND   0/24
R20_FILEFOUND   0/22
R20_HIFI   0/3
R20_INFO2   3559
R20_INTERNET   0/12940
R20_INTRESSE   0/60
R20_INTR_KOM   0/99
R20_KANDIDAT.CHAT   42
R20_KANDIDAT   28
R20_KOM_DEV   112
R20_KONTROLL   0/13360
R20_KORSET   0/18
R20_LOKALTRAFIK   0/24
R20_MODERATOR   0/1852
R20_NC   76
R20_NET200   245
R20_NETWORK.OTH...
...ERNETS
  0/13
R20_OPERATIVSYS...
...TEM.LINUX
  0/44
R20_PROGRAMVAROR   0/1
R20_REC2NEC   534
R20_SFOSM   0/341
R20_SF   0/108
R20_SPRAK.ENGLISH   0/1
R20_SQUISH   107
R20_TEST   2
R20_WORST_OF_FIDONET   20
RAR   0/9
RA_MULTI   106
RA_UTIL   0/162
REGCON.EUR   0/2066
REGCON   0/13
SCIENCE   0/1206
SF   0/239
SHAREWARE_SUPPORT   0/5146
SHAREWRE   0/14
SIMPSONS   0/169
STATS_OLD1   0/2539.065
STATS_OLD2   0/2530
STATS_OLD3   0/2395.095
STATS_OLD4   0/1692.25
SURVIVOR   0/495
SYSOPS_CORNER   0/3
SYSOP   0/84
TAGLINES   0/112
TEAMOS2   0/4530
TECH   0/2617
TEST.444   0/105
TRAPDOOR   0/19
TREK   0/755
TUB   0/290
UFO   0/40
UNIX   0/1316
USA_EURLINK   0/102
USR_MODEMS   0/1
VATICAN   0/2740
VIETNAM_VETS   0/14
VIRUS   0/378
VIRUS_INFO   0/201
VISUAL_BASIC   0/473
WHITEHOUSE   0/5187
WIN2000   0/101
WIN32   0/30
WIN95   0/4291
WIN95_OLD1   63632/70272
WINDOWS   0/1517
WWB_SYSOP   0/419
WWB_TECH   0/810
ZCC-PUBLIC   0/1
ZEC   4

 
4DOS   0/134
ABORTION   0/7
ALASKA_CHAT   0/506
ALLFIX_FILE   0/1313
ALLFIX_FILE_OLD1   0/7997
ALT_DOS   0/152
AMATEUR_RADIO   0/1039
AMIGASALE   0/14
AMIGA   0/331
AMIGA_INT   0/1
AMIGA_PROG   0/20
AMIGA_SYSOP   0/26
ANIME   0/15
ARGUS   0/924
ASCII_ART   0/340
ASIAN_LINK   0/651
ASTRONOMY   0/417
AUDIO   0/92
AUTOMOBILE_RACING   0/105
BABYLON5   0/17862
BAG   135
BATPOWER   0/361
BBBS.ENGLISH   0/382
BBSLAW   0/109
BBS_ADS   0/5290
BBS_INTERNET   0/507
BIBLE   0/3563
BINKD   0/1119
BINKLEY   0/215
BLUEWAVE   0/2173
CABLE_MODEMS   0/25
CBM   0/46
CDRECORD   0/66
CDROM   0/20
CLASSIC_COMPUTER   0/378
COMICS   0/15
CONSPRCY   0/899
COOKING   39899
COOKING_OLD1   0/24719
COOKING_OLD2   0/40862
COOKING_OLD3   0/37489
COOKING_OLD4   0/35496
COOKING_OLD5   9370
C_ECHO   0/189
C_PLUSPLUS   0/31
DIRTY_DOZEN   0/201
DOORGAMES   0/2155
DOS_INTERNET   0/196
duplikat   6102
ECHOLIST   0/18295
EC_SUPPORT   0/318
ELECTRONICS   0/359
ELEKTRONIK.GER   1534
ENET.LINGUISTIC   0/13
ENET.POLITICS   0/4
ENET.SOFT   0/11701
ENET.SYSOP   34210
ENET.TALKS   0/32
ENGLISH_TUTOR   0/2000
EVOLUTION   0/1335
FDECHO   0/217
FDN_ANNOUNCE   6006/7068
FIDONEWS   24749
FIDONEWS_OLD1   0/49742
FIDONEWS_OLD2   0/35949
FIDONEWS_OLD3   26570/30874
FIDONEWS_OLD4   0/37224
FIDO_SYSOP   12913
FIDO_UTIL   0/180
FILEFIND   0/209
FILEGATE   0/212
Möte HAM, 16392 texter
 lista första sista föregående nästa
Text 4881, 937 rader
Skriven 2011-11-10 23:37:04 av Amsat List (1:323/120.0)
Ärende: [keps] orb11314.amsa
============================
[keps] orb11314.amsa

Sender: keps-bounces@amsat.org
Return-Path: <keps-bounces@amsat.org>
X-Rcpt: craig.healy@chowda.com
X-UIDL: 1320981792.2272

SB KEPS @ AMSAT  $ORB11314.O
Orbital Elements  11314.OSCAR

HR AMSAT ORBITAL ELEMENTS FOR OSCAR SATELLITES
FROM WA5QGD FORT WORTH,TX November 10, 2011
Send Subscribe/unsubscribe to KEPS at http://www.amsat.org/mailman/listinfo/kep
BID: ORB11314.O
TO ALL RADIO AMATEURS BT

Satellite: AO-07
Catalog number: 07530
Epoch time:      11314.59996988
Element set:     226
Inclination:      101.3973 deg
RA of node:       315.3818 deg
Eccentricity:    0.0012061
Arg of perigee:   353.2129 deg
Mean anomaly:     006.8775 deg
Mean motion:   12.53585222 rev/day
Decay rate:       -2.7e-07 rev/day^2
Epoch rev:           69253
Checksum:              307

Satellite: FO-29
Catalog number: 24278
Epoch time:      11313.96041704
Element set:    0715
Inclination:      098.5689 deg
RA of node:       078.6041 deg
Eccentricity:    0.0349750
Arg of perigee:   239.5346 deg
Mean anomaly:     117.0817 deg
Mean motion:   13.52968529 rev/day
Decay rate:       -2.5e-07 rev/day^2
Epoch rev:           75217
Checksum:              334

Satellite: SO-33
Catalog number: 25509
Epoch time:      11313.81028079
Element set:    0097
Inclination:      031.4296 deg
RA of node:       140.6292 deg
Eccentricity:    0.0352831
Arg of perigee:   075.2164 deg
Mean anomaly:     288.7272 deg
Mean motion:   14.28506831 rev/day
Decay rate:      1.251e-05 rev/day^2
Epoch rev:           68111
Checksum:              292

Satellite: RS-22
Catalog number: 27939
Epoch time:      11314.72643660
Element set:     798
Inclination:      097.8268 deg
RA of node:       161.5920 deg
Eccentricity:    0.0012555
Arg of perigee:   238.9533 deg
Mean anomaly:     121.0440 deg
Mean motion:   14.63737406 rev/day
Decay rate:      1.278e-05 rev/day^2
Epoch rev:           43377
Checksum:              321

Satellite: VO-52
Catalog number: 28650
Epoch time:      11313.78118464
Element set:    0946
Inclination:      097.6264 deg
RA of node:       350.2802 deg
Eccentricity:    0.0027813
Arg of perigee:   046.0192 deg
Mean anomaly:     314.3320 deg
Mean motion:   14.82359105 rev/day
Decay rate:      2.097e-05 rev/day^2
Epoch rev:           35231
Checksum:              287

Satellite: SO-67
Catalog number: 35870
Epoch time:      11314.72730932
Element set:     394
Inclination:      097.2643 deg
RA of node:       353.1168 deg
Eccentricity:    0.0001323
Arg of perigee:   174.8415 deg
Mean anomaly:     323.8939 deg
Mean motion:   15.21737451 rev/day
Decay rate:      7.617e-05 rev/day^2
Epoch rev:           11921
Checksum:              309

Satellite: HO-68
Catalog number: 36122
Epoch time:      11314.78170848
Element set:     911
Inclination:      100.3969 deg
RA of node:       013.2513 deg
Eccentricity:    0.0007168
Arg of perigee:   251.2654 deg
Mean anomaly:     108.7672 deg
Mean motion:   13.16289829 rev/day
Decay rate:       -4.4e-07 rev/day^2
Epoch rev:            9152
Checksum:              299

/EX
SB KEPS @ AMSAT  $ORB11314.D
Orbital Elements  11314.MICROS

HR AMSAT ORBITAL ELEMENTS FOR THE MICROSATS
FROM WA5QGD FORT WORTH,TX November 10, 2011
Send Subscribe/unsubscribe to KEPS at http://www.amsat.org/mailman/listinfo/kep
BID: ORB11314.D
TO ALL RADIO AMATEURS BT

Satellite: UO-11
Catalog number: 14781
Epoch time:      11314.71102449
Element set:     702
Inclination:      097.9874 deg
RA of node:       010.8151 deg
Eccentricity:    0.0009885
Arg of perigee:   029.1092 deg
Mean anomaly:     331.0667 deg
Mean motion:   14.80138830 rev/day
Decay rate:      1.190e-05 rev/day^2
Epoch rev:           48746
Checksum:              294

Satellite: AO-16
Catalog number: 20439
Epoch time:      11313.85231498
Element set:    0332
Inclination:      098.4023 deg
RA of node:       258.7242 deg
Eccentricity:    0.0011871
Arg of perigee:   091.1432 deg
Mean anomaly:     269.1111 deg
Mean motion:   14.31967964 rev/day
Decay rate:       3.39e-06 rev/day^2
Epoch rev:           13846
Checksum:              294

Satellite: LO-19
Catalog number: 20442
Epoch time:      11313.90908713
Element set:     243
Inclination:      098.3670 deg
RA of node:       262.5813 deg
Eccentricity:    0.0012829
Arg of perigee:   084.6418 deg
Mean anomaly:     275.6232 deg
Mean motion:   14.32190966 rev/day
Decay rate:       3.84e-06 rev/day^2
Epoch rev:           13865
Checksum:              306

Satellite: AO-27
Catalog number: 22825
Epoch time:      11313.89284505
Element set:    0971
Inclination:      098.5474 deg
RA of node:       255.4480 deg
Eccentricity:    0.0008183
Arg of perigee:   201.0287 deg
Mean anomaly:     159.0557 deg
Mean motion:   14.29387994 rev/day
Decay rate:       2.31e-06 rev/day^2
Epoch rev:           94500
Checksum:              322

Satellite: IO-26
Catalog number: 22826
Epoch time:      11313.86543364
Element set:    0713
Inclination:      098.5419 deg
RA of node:       255.8511 deg
Eccentricity:    0.0008382
Arg of perigee:   197.5330 deg
Mean anomaly:     162.5561 deg
Mean motion:   14.29654668 rev/day
Decay rate:       3.04e-06 rev/day^2
Epoch rev:           94512
Checksum:              314

Satellite: GO-32
Catalog number: 25397
Epoch time:      11313.65116435
Element set:    0627
Inclination:      098.3394 deg
RA of node:       298.5314 deg
Eccentricity:    0.0001190
Arg of perigee:   166.0041 deg
Mean anomaly:     194.1156 deg
Mean motion:   14.23233054 rev/day
Decay rate:       1.61e-06 rev/day^2
Epoch rev:           69265
Checksum:              283

